{"data":{"norad_id":62403,"intl_designator":"2024-247AC","name":"BANDWAGON-2 OBJECT AC","alt_names":[],"object_type":"PAYLOAD","status":"ACTIVE","operator":null,"country":"TBD","launch_date":"2024-12-21","launch_site_code":"AFWTR","launch_vehicle":null,"mission":null,"orbit_class":"UNKNOWN","rcs_meters":null,"size_class":null,"mass_kg":null,"dimensions":null,"purposes":[],"wikipedia_slug":null,"has_3d_model":false,"image_url":null,"decayed_at":null,"tle_current":{"epoch":"2026-05-25T00:19:03.567936Z","epoch_age_seconds":73674,"freshness":"FRESH","line1":"1 62403U 24247AC  26145.01323574  .00016419  00000+0  43866-3 0  9997","line2":"2 62403  45.0047  44.6424 0003760 152.8739 207.2345 15.37950044 79593","mean_motion":15.37950044,"eccentricity":0.000376,"inclination_deg":45.0047,"raan_deg":44.6424,"arg_perigee_deg":152.8739,"mean_anomaly_deg":207.2345,"bstar":0.00043866,"rev_number":7959,"period_min":93.631129672766,"perigee_km":449.60386691732,"apogee_km":454.74025933279,"semimajor_km":6830.3090631251,"source":"CELESTRAK","updated_at":"2026-05-25T13:38:02.972353Z"}}}